User: anonymous   Login
Location: Anjeux
(47.8815°N, 6.2076°E)
Time: 15:25:11
(UTC+00:00)
Language:

Cosmos 2082 Rocket - Orbit

View from above orbital plane
View from above orbital plane
View from above satellite
View from above satellite

Ground track
Ground track

The orbit data is extracted from the following two-line orbital elements,

1 20625U 90046B   21135.91016481 -.00000259  00000-0 -10974-3 0  9998
2 20625  71.0006  30.3788 0012004  98.6270 261.6213 14.14664952599634
Epoch (UTC): 15 May 2021 21:50:38
Eccentricity: 0.0012004
inclination: 71.0006°
perigee height: 835 km
apogee height: 852 km
right ascension of ascending node: 30.3788°
argument of perigee: 98.6270°
revolutions per day: 14.14664952
mean anomaly at epoch: 261.6213°
orbit number at epoch: 59963

The dashed part of the orbit path shows where the satellite is in the earth's shadow,  

DLR